Wind_Speed
66 67 68 70 72 72 72 72 71 70 69 68 67 66 66 66 66 65 65 65 64 64 63 63 63 62 61 59 58 60 60 59 59 61 61 60 58 57
55 55 57 61 64 65 65 66 67 67 66 66 65 65 64 63 64 64 64 64 63 63 62 61 61 60 59 58 58 58 58 58 58 59 59 59 59 59
51 53 53 55 59 60 60 62 63 65 65 66 66 65 65 64 64 64 64 64 63 63 62 62 61 60 58 57 57 57 57 58 59 59 60 60 60 60
49 52 53 54 60 61 62 62 63 65 65 65 66 66 65 64 63 63 64 63 62 61 60 59 58 59 58 57 57 57 58 59 60 61 61 61 60 59
49 48 49 53 56 58 57 57 57 57 58 58 58 59 59 59 59 60 60 59 58 58 58 57 57 58 58 58 58 59 60 61 61 61 62 62 60 58
49 45 43 45 48 50 51 51 52 52 52 53 53 54 55 55 56 57 58 59 58 58 58 59 59 61 61 59 59 58 58 58 57 56 55 55 55 54
46 44 40 40 43 45 47 47 48 48 49 50 52 53 54 55 56 55 56 57 59 59 60 60 60 60 61 60 59 58 56 53 51 49 48 48 48 49
42 41 40 40 42 44 44 45 45 46 46 48 50 53 54 56 57 56 55 56 58 58 58 59 58 58 58 57 57 57 53 49 47 46 46 46 46 47
38 39 40 41 43 44 44 44 44 44 45 47 48 50 52 55 57 56 55 56 57 56 55 55 55 56 56 54 53 52 51 49 47 46 45 45 44 44
36 38 39 42 43 44 43 43 44 46 47 49 49 49 50 52 55 57 57 56 55 54 52 51 51 51 50 49 47 47 48 48 47 46 46 45 44 43
34 36 39 40 41 41 41 41 43 45 47 49 49 48 46 47 49 52 53 53 52 49 48 48 48 48 47 45 44 45 47 48 47 46 45 44 43 43
35 37 39 39 39 39 39 39 38 39 42 45 45 45 46 47 46 46 47 48 48 46 45 45 46 46 45 44 43 44 46 48 48 47 46 45 44 44
36 37 38 40 40 40 39 38 37 36 37 41 42 42 43 44 44 44 45 46 45 43 42 42 42 43 43 43 44 45 46 48 48 48 47 46 46 47
37 37 38 39 41 41 40 40 38 37 37 37 39 41 41 42 42 43 44 44 44 42 41 40 39 39 39 39 41 43 45 46 46 46 47 48 49 49
39 39 39 40 41 42 42 41 40 40 40 39 39 40 41 42 42 43 43 45 45 46 46 45 43 42 41 39 40 42 44 46 47 47 48 50 50 50
45 44 43 42 43 43 44 43 42 41 41 41 40 39 40 41 42 43 43 44 45 46 46 46 45 44 44 44 44 44 45 47 49 50 50 51 51 52
52 51 49 48 48 47 46 45 45 44 43 43 42 40 40 40 41 41 41 42 42 42 42 41 40 41 42 44 46 47 48 49 50 52 53 54 55 55
55 55 55 55 54 53 51 49 48 47 46 45 44 43 43 43 42 42 42 42 42 42 42 40 40 40 41 44 46 49 52 53 55 56 57 57 58 59
58 58 59 58 58 58 57 56 53 51 50 50 49 49 48 47 47 46 45 45 44 43 43 43 42 40 40 42 45 49 53 55 57 58 59 59 58 58
62 62 62 62 62 61 61 60 59 58 56 55 54 54 53 52 52 52 51 50 49 48 47 47 45 43 42 42 44 47 51 53 55 56 58 58 58 57
65 65 65 65 65 65 64 64 63 63 62 61 59 58 58 57 57 56 57 56 54 53 51 51 49 47 45 45 45 47 50 51 51 52 53 54 54 53
62 66 68 68 68 68 68 68 67 67 67 66 66 65 64 63 62 61 60 59 58 56 55 54 54 53 50 48 48 49 50 50 50 50 50 49 49 48
47 55 62 67 70 71 71 71 70 70 70 69 69 69 69 68 68 67 66 65 63 61 60 59 58 58 57 54 52 51 51 50 49 48 48 48 46 44
Wind_Direction
247 246 245 244 243 244 244 244 244 244 245 246 247 248 249 249 249 249 248 249 250 251 252 253 254 256 256 256 255 255 255 252 250 249 249 249 249 247
242 240 241 240 242 243 243 244 244 245 245 246 248 248 249 250 250 249 248 247 247 248 250 252 253 255 255 255 254 253 253 252 249 247 247 247 246 246
240 237 239 242 242 243 244 245 245 246 246 246 247 247 247 247 247 247 248 247 247 248 249 250 251 253 253 252 251 251 252 252 249 248 247 247 247 247
238 237 237 239 238 239 242 245 247 247 247 247 248 248 249 248 248 248 248 248 248 248 249 248 248 247 247 248 248 250 253 253 252 250 248 248 248 249
235 237 239 240 237 239 244 246 247 247 247 246 246 248 249 249 247 247 246 246 246 247 246 244 243 242 244 245 247 251 254 254 253 251 250 249 250 249
234 236 238 238 238 241 242 243 244 243 242 241 243 245 247 247 247 247 246 245 245 245 245 243 242 242 243 245 247 249 252 254 252 249 247 245 245 244
234 234 233 236 236 236 235 237 239 239 239 241 244 246 248 249 249 249 247 246 245 244 244 244 243 244 244 244 246 247 250 249 244 241 241 241 241 242
232 233 232 232 232 232 233 235 238 240 242 244 246 247 248 248 247 246 246 245 244 244 245 244 242 243 244 245 246 246 245 240 237 238 239 240 241 242
231 231 229 230 231 232 234 238 242 246 247 248 248 248 246 244 242 242 242 242 242 241 243 244 242 242 244 245 245 242 239 236 235 236 239 241 243 246
227 226 227 229 231 234 237 241 246 248 249 248 247 247 245 242 241 241 240 241 241 241 241 242 240 240 241 242 241 237 235 234 236 238 240 243 246 248
229 228 228 231 233 237 240 244 247 248 247 245 244 245 242 240 240 239 237 237 237 237 238 238 237 237 239 239 237 234 233 234 236 239 241 243 247 250
235 234 234 234 235 238 240 243 246 247 245 242 241 240 240 242 239 234 230 230 231 233 235 235 234 235 238 238 237 235 234 235 237 240 243 245 248 251
236 236 237 236 235 237 239 242 246 248 247 243 240 238 238 238 235 230 227 227 229 231 232 232 232 234 237 239 240 240 239 240 241 243 246 248 250 251
236 236 237 237 237 238 242 244 247 249 249 245 239 236 236 235 233 231 229 229 230 232 233 234 234 235 237 240 243 245 246 246 246 248 249 251 252 253
240 240 241 241 240 240 242 244 246 246 246 243 238 234 233 233 232 231 230 230 232 234 236 237 239 240 241 243 245 248 250 251 251 252 254 255 256 257
243 243 243 243 243 243 242 242 243 244 243 240 236 233 231 230 231 231 231 232 233 235 237 239 241 243 245 247 248 249 251 253 254 254 255 256 258 259
242 242 242 242 242 243 243 243 243 243 242 240 236 234 232 230 229 230 231 232 234 235 236 238 240 243 246 248 250 251 252 253 255 256 257 258 259 259
243 242 242 241 241 241 241 241 241 242 242 241 238 237 235 233 231 230 232 234 235 237 238 239 241 245 249 252 254 255 255 256 256 257 257 257 259 260
243 243 243 242 241 241 240 240 239 240 240 240 239 238 238 236 234 233 233 235 237 238 240 241 243 247 251 256 259 260 259 258 258 258 258 258 259 260
245 244 243 243 242 242 241 241 240 239 239 239 239 239 238 238 237 236 236 237 238 239 242 243 245 248 252 256 261 264 262 260 259 259 259 259 259 259
246 245 244 244 243 243 243 242 242 241 241 240 240 240 240 239 239 239 239 239 239 241 243 245 247 249 252 256 260 264 266 264 261 259 258 258 257 257
249 247 245 244 244 243 243 243 243 243 243 243 242 241 241 240 240 240 241 241 242 242 244 246 248 250 253 257 259 262 265 266 264 261 259 258 256 253
253 250 248 246 245 244 243 243 244 244 244 244 244 245 244 243 243 243 243 244 244 245 246 247 250 252 254 257 258 260 263 264 265 262 260 258 256 254
Height
5538 5543 5548 5553 5560 5567 5574 5580 5587 5593 5600 5605 5610 5614 5618 5622 5628 5633 5637 5641 5646 5650 5654 5659 5663 5668 5672 5677 5681 5685 5689 5693 5697 5701 5705 5709 5713 5718
5521 5527 5532 5537 5543 5550 5557 5563 5569 5576 5583 5588 5593 5598 5603 5607 5611 5616 5621 5625 5630 5634 5639 5643 5648 5653 5657 5662 5666 5670 5674 5678 5682 5686 5690 5694 5699 5704
5507 5513 5519 5525 5531 5537 5542 5548 5554 5559 5566 5571 5575 5580 5586 5591 5595 5599 5604 5609 5614 5619 5623 5628 5633 5638 5643 5647 5651 5656 5659 5663 5667 5671 5675 5681 5685 5690
5494 5499 5504 5510 5517 5523 5527 5533 5538 5544 5550 5555 5558 5562 5568 5574 5579 5584 5588 5593 5598 5603 5607 5612 5618 5623 5628 5632 5636 5640 5644 5647 5651 5656 5662 5667 5670 5674
5481 5486 5490 5495 5501 5507 5512 5517 5523 5528 5533 5538 5542 5545 5551 5557 5563 5568 5573 5578 5582 5587 5592 5596 5602 5607 5612 5617 5621 5625 5628 5632 5636 5641 5646 5651 5656 5661
5468 5473 5477 5482 5487 5493 5499 5504 5509 5514 5519 5524 5527 5531 5537 5542 5547 5552 5557 5562 5567 5572 5576 5581 5587 5592 5597 5602 5606 5609 5613 5617 5622 5627 5632 5637 5642 5646
5457 5461 5465 5469 5475 5481 5486 5491 5496 5501 5505 5509 5514 5518 5522 5527 5532 5537 5541 5546 5550 5556 5560 5566 5572 5577 5581 5585 5590 5595 5600 5604 5609 5614 5619 5623 5628 5633
5444 5448 5453 5458 5464 5469 5475 5480 5484 5488 5492 5495 5499 5503 5507 5512 5516 5521 5526 5530 5536 5542 5545 5550 5557 5561 5565 5570 5576 5581 5587 5593 5598 5603 5607 5612 5616 5621
5433 5438 5443 5448 5453 5458 5463 5468 5471 5475 5478 5482 5484 5487 5492 5496 5501 5507 5511 5515 5521 5527 5531 5535 5542 5547 5552 5557 5563 5568 5574 5580 5585 5590 5595 5600 5604 5608
5423 5427 5432 5437 5442 5447 5451 5455 5459 5462 5465 5468 5471 5474 5477 5481 5486 5491 5495 5501 5507 5512 5518 5523 5529 5534 5539 5545 5550 5555 5561 5567 5573 5578 5582 5587 5591 5595
5413 5417 5421 5426 5431 5435 5440 5444 5447 5449 5451 5453 5457 5460 5463 5467 5472 5476 5481 5487 5493 5499 5505 5510 5516 5522 5527 5533 5538 5543 5549 5555 5560 5565 5570 5574 5579 5583
5403 5407 5411 5415 5419 5423 5428 5432 5434 5436 5438 5440 5443 5446 5451 5455 5459 5463 5469 5474 5480 5487 5493 5499 5505 5511 5516 5522 5526 5532 5537 5543 5548 5553 5558 5562 5566 5570
5392 5396 5400 5403 5408 5412 5416 5419 5422 5424 5426 5428 5430 5434 5438 5443 5447 5452 5458 5463 5470 5476 5482 5488 5494 5500 5505 5510 5514 5520 5525 5530 5535 5540 5545 5549 5553 5557
5380 5384 5388 5392 5395 5399 5403 5406 5409 5412 5415 5417 5419 5423 5427 5432 5437 5442 5448 5453 5459 5466 5472 5478 5483 5489 5495 5499 5503 5507 5512 5518 5523 5528 5532 5536 5539 5542
5367 5371 5375 5379 5383 5386 5390 5393 5397 5400 5403 5406 5409 5412 5417 5422 5427 5432 5438 5443 5449 5455 5461 5467 5473 5479 5484 5489 5492 5496 5500 5505 5511 5515 5519 5522 5526 5529
5352 5356 5360 5364 5369 5373 5377 5381 5384 5388 5391 5395 5399 5402 5407 5411 5417 5422 5428 5433 5439 5445 5451 5456 5462 5467 5473 5477 5482 5487 5491 5494 5497 5502 5506 5509 5512 5515
5336 5340 5344 5349 5353 5358 5363 5367 5371 5375 5379 5383 5387 5392 5396 5401 5406 5411 5417 5423 5428 5434 5440 5445 5450 5456 5461 5466 5471 5476 5479 5483 5486 5490 5493 5496 5498 5501
5317 5322 5326 5331 5336 5342 5347 5351 5356 5361 5366 5370 5375 5380 5385 5390 5395 5400 5406 5412 5417 5423 5428 5434 5439 5445 5449 5454 5459 5462 5465 5469 5473 5477 5480 5484 5485 5486
5298 5302 5306 5312 5317 5323 5328 5334 5340 5345 5351 5356 5362 5367 5373 5378 5383 5389 5394 5400 5405 5411 5416 5422 5427 5433 5437 5442 5445 5448 5451 5455 5458 5462 5465 5469 5472 5472
5276 5281 5286 5291 5297 5303 5309 5316 5322 5328 5334 5340 5346 5352 5358 5364 5370 5375 5381 5387 5392 5398 5403 5409 5415 5420 5425 5430 5432 5433 5436 5440 5443 5446 5449 5452 5456 5458
5253 5259 5265 5270 5276 5283 5289 5296 5302 5309 5316 5323 5329 5336 5342 5348 5354 5360 5366 5372 5379 5384 5389 5394 5401 5407 5411 5416 5419 5419 5420 5424 5428 5431 5433 5436 5440 5444
5230 5235 5242 5248 5255 5261 5268 5275 5282 5289 5296 5303 5310 5317 5323 5330 5337 5343 5350 5357 5363 5369 5373 5378 5385 5391 5397 5402 5405 5408 5407 5409 5413 5416 5418 5421 5424 5429
5209 5213 5218 5225 5232 5239 5246 5253 5260 5267 5274 5282 5289 5296 5303 5311 5318 5325 5332 5339 5345 5351 5357 5362 5368 5374 5380 5386 5391 5394 5395 5396 5398 5401 5404 5406 5410 5414